This is the latest recevied weather packets stored in our database for station/object N1ORT. If no packets are shown the sender has not sent any weather packets the latest 1 day(s).
| Time | Temp. | Humidity | Pressure | Rain* | Wind** | Luminosity | Snow |
|---|---|---|---|---|---|---|---|
| 1777994695 | 23.33° C | 49% | 1007.1 hPa | 0 mm | 1.34 m/s, 78° | 915 W/m² | - |
| 1777994390 | 23.33° C | 50% | 1007.2 hPa | 0 mm | 1.34 m/s, 300° | 870 W/m² | - |
| 1777994086 | 22.78° C | 49% | 1007.1 hPa | 0 mm | 2.68 m/s, 276° | 851 W/m² | - |
| 1777993783 | 23.33° C | 50% | 1007.2 hPa | 0 mm | 1.34 m/s, 277° | 846 W/m² | - |
| 1777993480 | 22.78° C | 52% | 1007.2 hPa | 0 mm | 0 m/s | 843 W/m² | - |
| 1777993179 | 22.22° C | 52% | 1007.3 hPa | 0 mm | 0.89 m/s, 67° | 844 W/m² | - |
| 1777992878 | 22.78° C | 51% | 1007.4 hPa | 0 mm | 1.79 m/s, 267° | 827 W/m² | - |
| 1777992575 | 22.78° C | 53% | 1007.4 hPa | 0 mm | 0.89 m/s, 49° | 826 W/m² | - |
| 1777992273 | 21.67° C | 53% | 1007.5 hPa | 0 mm | 0.45 m/s, 311° | 809 W/m² | - |
| 1777991970 | 21.67° C | 55% | 1007.6 hPa | 0 mm | 0.89 m/s, 335° | 796 W/m² | - |
| 1777991668 | 21.67° C | 54% | 1007.5 hPa | 0 mm | 0.45 m/s, 35° | 794 W/m² | - |
| 1777991365 | 20.56° C | 55% | 1007.5 hPa | 0 mm | 1.34 m/s, 16° | 799 W/m² | - |
| 1777991062 | 20.56° C | 55% | 1007.4 hPa | 0 mm | 0.89 m/s, 0° | 795 W/m² | - |
| 1777990759 | 21.11° C | 54% | 1007.5 hPa | 0 mm | 1.34 m/s, 160° | 775 W/m² | - |
| 1777990456 | 20.56° C | 55% | 1007.5 hPa | 0 mm | 0.45 m/s, 98° | 772 W/m² | - |
| 1777990153 | 20.56° C | 55% | 1007.5 hPa | 0 mm | 3.13 m/s, 281° | 756 W/m² | - |
| 1777989850 | 20° C | 56% | 1007.5 hPa | 0 mm | 0.89 m/s, 305° | 743 W/m² | - |
| 1777989547 | 20° C | 58% | 1007.6 hPa | 0 mm | 0.89 m/s, 307° | 739 W/m² | - |
| 1777989244 | 20° C | 60% | 1007.2 hPa | 0 mm | 0.45 m/s, 349° | 778 W/m² | - |
| 1777988940 | 19.44° C | 58% | 1007.3 hPa | 0 mm | 1.79 m/s, 311° | 416 W/m² | - |
| 1777988636 | 19.44° C | 58% | 1007.4 hPa | 0 mm | 1.34 m/s, 80° | 708 W/m² | - |
| 1777988333 | 18.89° C | 61% | 1007.5 hPa | 0 mm | 1.34 m/s, 11° | 339 W/m² | - |
| 1777988030 | 18.89° C | 60% | 1007.5 hPa | 0 mm | 0.89 m/s, 286° | 694 W/m² | - |
| 1777987725 | 18.33° C | 62% | 1007.8 hPa | 0 mm | 1.34 m/s, 232° | 666 W/m² | - |
| 1777987423 | 17.22° C | 66% | 1007.8 hPa | 0 mm | 1.34 m/s, 194° | 342 W/m² | - |
* Rain latest hour (hover to see other rain measurements)
** Current wind speed in m/s (hover to see current wind gust speed)